tvlicensing.co.uk alexa rank chart, tvlicensing.co.uk alexa rank daily changes

tvlicensing.co.uk alexa rank chart, tvlicensing.co.uk alexa rank daily changes

tvlicensing.co.uk
Actual rank:
37 823

RANK HISTORY

Date Rank Diff
2017/04/26 37 823 -423
2017/04/25 38 246 -445
2017/04/24 38 691 -361
2017/04/23 39 052 -42
2017/04/22 39 094 +716
2017/04/21 38 378 -534
2017/04/20 38 912 +243
2017/04/19 38 669 +113
2017/04/18 38 556 +296
2017/04/17 38 260 -299
2017/04/16 38 559 -609
2017/04/15 39 168 +400
2017/04/14 38 768 +112
2017/04/13 38 656 -344
2017/04/12 39 000 -454
2017/04/11 39 454 +461
2017/04/10 38 993 +850
2017/04/09 38 143 +560
2017/04/08 37 583 +195
2017/04/07 37 388 -285
2017/04/06 37 673 +238
2017/04/05 37 435 -42
2017/04/04 37 477 +499
2017/04/03 36 978 -13
2017/04/02 36 991 -239
2017/04/01 37 230 +124
2017/03/31 37 106 -365
2017/03/30 37 471 +24
2017/03/29 37 447 +146
2017/03/28 37 301 -241
2017/03/27 37 542 +415
2017/03/26 37 127 +85
2017/03/25 37 042 +118
2017/03/24 36 924 -405
2017/03/23 37 329 +790
2017/03/22 36 539 -34
2017/03/21 36 573 -273
2017/03/20 36 846 -215
2017/03/19 37 061 +48
2017/03/18 37 013 -287
2017/03/17 37 300 +107
2017/03/16 37 193 +950
2017/03/15 36 243 -483
2017/03/14 36 726 -20
2017/03/13 36 746 -232
2017/03/12 36 978 +353
2017/03/11 36 625 -104
2017/03/10 36 729 -105
2017/03/09 36 834 -208
2017/03/08 37 042 -800
2017/03/07 37 842 -861
2017/03/06 38 703 -72
2017/03/01 38 775 +422
2017/02/28 38 353 -198
2017/02/27 38 551 -227
2017/02/26 38 778 +116
2017/02/25 38 662

WIDGET FOR YOUR SITE

DOMAINS WITH THE NEAREST RANK

Domain Rank
blogtin.com 37 818
ditan360.com 37 819
novilist.hr 37 820
zh.ch 37 821
mangaraw.net 37 822
tvlicensing.co.uk 37 823
baiduyunwangpan.cc 37 824
tabletkoulu.fi 37 825
secondnexus.com 37 826
the9.com 37 827
easy-pay.in 37 828

DOMAINS WITH THE NEAREST RANK BY TLD .co.uk

Domain Rank
footlocker.co.uk 37 481
uktv.co.uk 37 586
broadbandspeedchecker.co.uk 37 597
geforce.co.uk 37 656
echalk.co.uk 37 793
tvlicensing.co.uk 37 823
disney.co.uk 37 919
getrevising.co.uk 37 986
ybonline.co.uk 38 078
volkswagen.co.uk 38 229
adzuna.co.uk 38 520